Location: Courcelles
(49.2596°N, 1.7419°E)
Time: 20:22:20
(UTC+00:00)

SL-12 R/B(2) - Pass Details

Date: 17 November 2025
Orbit: 1174 x 2175 km, 63.4° (Epoch: 05 December)

Event Time Altitude Azimuth Distance (km) Brightness Sun altitude
Rises 17:17:02 0° 204° (SSW) 4,168 7.4 -11.1°
Reaches altitude 10° 17:19:37 10° 201° (SSW) 3,276 6.8 -11.5°
Maximum altitude 17:27:25 65° 122° (ESE) 1,575 4.4 -12.7°
Drops below altitude 10° 17:36:57 10° 44° (NE) 3,971 6.2 -14.2°
Enters shadow 17:37:01 10° 44° (NE) 3,993 6.2 -14.2°
